Theta_e
349 358 359 361 361 359 358 356 351 352 349 347 348 347 346 344 350 347 341 343 344 334 331 333 334 335 335 335 335 338 331 332 338 338 338 338 338 336 335 336 337 339 340 340 340 341 337 333 335
355 359 358 360 361 361 357 351 349 346 347 347 348 346 341 340 339 338 345 345 346 335 333 332 333 335 335 335 337 337 340 337 334 337 338 338 338 338 337 337 337 340 341 341 340 339 336 333 336
358 362 360 360 360 359 355 352 348 345 345 346 349 348 343 338 338 340 347 348 346 336 335 333 332 335 335 337 337 338 338 337 337 336 337 339 337 338 337 337 337 339 341 340 340 340 331 330 341
358 352 346 360 356 353 351 348 347 347 349 347 344 345 342 342 338 343 349 347 347 344 337 334 335 335 335 337 340 337 336 337 337 336 336 336 338 339 335 336 338 337 341 340 340 337 336 337 333
343 347 355 357 355 350 347 347 347 346 348 348 348 346 344 339 345 347 348 348 346 347 335 336 336 336 338 338 336 338 342 336 337 338 340 336 333 340 339 337 336 337 337 341 342 341 337 336 331
343 347 358 359 356 352 347 348 348 347 347 347 345 344 344 339 343 347 349 349 349 348 336 336 333 335 337 339 337 335 335 337 337 337 340 339 339 338 340 340 337 334 336 339 339 341 340 339 335
346 348 352 356 357 356 351 349 349 349 348 348 347 345 344 339 341 347 350 350 349 342 335 333 332 333 337 336 336 336 335 336 337 336 337 343 338 339 338 340 339 336 335 336 338 337 337 337 335
348 346 356 355 356 355 351 349 347 349 348 349 347 345 344 341 341 344 350 348 347 345 336 331 330 333 330 332 333 333 332 332 336 343 342 344 342 340 339 339 342 337 332 332 337 336 335 336 333
356 354 356 353 353 355 350 351 349 348 346 347 349 345 342 340 342 343 347 348 347 346 346 344 338 345 345 333 333 341 342 344 341 343 344 345 343 338 339 339 341 335 339 333 339 338 338 337 339
351 352 354 350 349 350 349 351 348 349 347 349 347 345 342 340 342 346 347 347 347 347 347 346 347 346 348 344 343 347 346 345 344 345 346 346 344 342 338 339 339 338 341 339 333 338 337 338 339
346 351 349 345 344 343 347 349 349 348 349 348 349 344 343 341 345 346 348 346 347 347 347 347 348 349 348 346 345 348 349 349 346 348 347 346 347 344 339 338 339 338 340 338 336 331 332 334 337
353 349 344 348 348 347 350 349 347 348 347 346 348 347 344 347 345 345 347 347 346 348 347 348 348 348 349 348 348 348 349 347 340 345 346 349 348 348 345 343 337 338 338 339 337 334 342 345 346
351 348 348 349 349 350 348 347 348 345 344 347 348 348 348 349 347 347 347 346 345 347 348 347 347 348 350 349 349 349 348 345 345 341 342 347 347 349 349 348 346 342 339 338 336 344 346 346 347
349 350 346 349 349 349 347 344 344 344 344 346 349 348 348 347 348 344 345 345 345 346 345 346 346 346 344 347 351 347 347 348 345 348 349 349 346 349 350 349 349 346 341 339 343 346 346 345 345
349 349 348 351 349 347 346 349 345 345 345 349 349 349 348 347 346 345 344 344 345 346 346 345 348 345 332 347 350 348 350 351 351 352 351 352 346 347 350 350 349 348 344 341 345 347 347 346 341
349 349 354 350 349 347 348 353 345 345 348 349 348 347 347 347 345 341 340 344 338 346 349 347 343 335 341 346 347 349 351 350 350 351 352 352 349 348 348 350 349 348 346 347 345 345 346 345 344
351 353 350 352 348 346 349 353 345 347 348 348 347 348 347 346 345 344 341 344 345 346 346 345 343 349 349 350 350 351 351 351 350 353 350 350 351 348 350 350 350 349 347 347 348 345 345 345 345
354 353 351 352 346 347 350 351 345 347 347 347 347 347 346 345 343 345 345 345 345 346 346 346 347 350 350 352 349 350 350 350 350 351 353 350 350 351 349 351 349 349 348 347 346 346 346 346 343
348 348 352 351 349 351 354 348 344 346 347 346 347 346 345 344 344 345 342 342 340 342 348 349 349 350 351 351 345 347 347 350 350 351 352 352 350 352 347 351 349 349 351 350 350 349 348 347 345
347 352 350 349 346 350 352 351 344 343 347 346 346 345 346 345 344 345 344 344 345 347 348 348 348 343 340 340 349 351 351 351 351 352 352 356 355 353 351 348 353 352 349 351 351 349 348 348 346
347 347 347 350 347 348 349 351 345 343 347 346 345 346 343 345 344 343 344 344 344 345 346 341 341 345 344 347 349 350 349 350 348 351 351 352 352 353 353 353 350 347 349 350 350 348 349 349 348
352 346 346 347 351 355 346 356 349 343 342 346 345 343 343 344 344 344 342 343 343 343 343 343 345 345 345 347 350 349 346 344 347 350 352 350 350 354 353 354 351 346 349 351 348 349 349 352 351
348 345 347 346 350 348 351 350 341 340 343 343 342 344 343 343 343 345 345 344 341 341 342 345 346 346 344 345 346 351 351 349 352 352 351 349 352 353 353 353 354 346 342 353 352 348 349 347 348
343 345 345 341 345 354 350 351 350 345 344 342 343 344 344 343 343 343 344 342 341 341 344 345 345 345 346 347 347 347 350 347 352 352 351 350 352 355 353 352 351 347 345 348 350 351 351 351 351
341 343 350 350 355 356 345 348 350 348 346 343 341 342 343 342 341 342 342 341 341 343 344 344 344 345 345 344 345 343 342 341 349 355 352 349 353 355 356 353 352 349 350 352 350 349 352 351 347
345 343 346 355 357 353 347 354 345 345 346 344 342 343 342 342 342 342 342 342 341 342 342 343 344 345 344 343 340 339 338 338 348 350 351 352 355 355 355 355 354 350 346 345 342 346 348 347 350
344 345 343 349 348 350 348 347 345 342 345 344 343 343 342 342 340 341 341 342 340 342 342 344 345 345 341 342 342 338 337 337 339 341 343 350 350 350 352 356 355 350 348 342 344 349 349 346 347
342 339 344 345 354 355 353 348 354 347 343 345 343 343 343 342 342 340 340 341 343 343 344 344 345 345 343 345 344 344 342 340 340 347 350 353 348 357 354 355 351 348 342 343 346 346 344 342 346
340 341 341 343 347 354 353 351 344 343 345 343 343 344 343 342 343 342 341 341 342 342 344 344 345 345 345 345 346 347 345 344 343 346 350 351 351 355 356 356 349 350 339 347 346 344 343 346 343
339 341 339 340 349 346 346 348 343 344 342 344 348 345 344 343 344 343 342 342 343 343 344 345 347 349 352 354 354 353 354 353 346 344 346 347 349 351 350 352 351 351 350 350 348 347 345 344 342
Wind_Speed
5 1 2 2 2 2 1 1 6 8 8 20 24 25 14 15 5 7 28 20 16 16 17 16 15 14 14 13 13 12 12 12 10 10 11 11 11 10 10 11 10 10 10 13 15 16 16 18 21
6 5 4 7 2 2 3 10 13 12 16 20 29 29 23 14 23 29 33 20 15 16 17 17 16 14 13 13 13 13 13 12 11 10 12 12 14 13 13 12 12 11 12 14 15 16 16 20 22
5 3 5 2 3 2 6 3 10 13 21 18 12 18 10 20 23 28 30 22 16 21 16 16 16 15 13 13 12 13 12 11 12 12 12 13 13 14 12 11 12 12 14 14 14 15 16 21 24
15 4 1 4 6 4 7 14 11 8 19 22 23 9 19 12 21 27 30 26 14 16 14 14 15 15 13 13 13 12 11 11 11 10 10 11 12 11 11 11 12 12 12 14 16 14 15 20 23
24 6 4 5 3 5 11 20 14 11 14 24 23 10 9 26 26 30 31 23 16 18 15 14 14 13 14 14 13 12 11 11 11 11 7 6 10 11 11 11 11 11 12 12 14 15 14 17 21
10 6 2 4 5 4 13 22 13 11 24 23 20 15 7 26 24 24 26 20 17 14 17 16 14 14 14 14 12 10 9 9 9 8 5 3 7 8 10 10 11 11 11 12 13 13 15 15 19
10 4 3 10 13 5 7 19 10 8 14 16 23 6 14 23 21 25 24 21 15 14 16 15 14 14 13 12 11 9 8 7 6 3 3 2 6 9 9 9 10 11 10 11 12 12 13 15 20
17 8 1 1 10 1 11 18 20 10 4 16 20 7 12 26 25 24 28 21 16 14 13 14 14 14 10 10 9 9 8 7 5 6 3 2 6 9 9 9 10 10 10 10 11 11 12 14 17
16 4 3 5 4 2 23 6 16 13 9 6 8 23 30 33 30 19 32 23 18 11 11 14 13 12 12 11 10 11 11 9 8 8 5 6 6 14 11 9 10 10 9 11 11 11 12 14 13
6 4 2 7 6 5 8 13 6 8 8 17 18 25 33 31 26 24 24 26 22 19 11 10 11 10 11 10 11 10 10 9 5 4 4 5 5 10 14 11 10 10 9 11 12 11 11 11 12
6 6 7 15 23 20 16 26 18 17 4 18 22 35 29 32 26 25 19 17 15 20 19 15 12 9 6 8 8 7 5 5 5 4 3 3 1 4 10 11 11 11 11 11 11 12 12 11 13
3 7 9 8 14 14 6 19 12 12 8 22 20 31 35 28 24 25 24 22 21 17 19 19 15 9 8 6 4 3 3 5 6 3 3 1 2 1 4 10 12 12 12 11 11 11 10 12 8
9 12 16 33 32 30 27 17 5 13 7 18 30 23 27 27 28 21 22 25 15 18 19 22 16 15 18 8 4 2 2 3 5 12 12 8 6 3 7 7 10 15 14 12 13 13 7 8 7
9 23 23 10 24 15 11 9 2 9 4 29 29 23 22 22 29 24 18 19 21 21 23 20 20 17 14 12 8 2 3 2 4 3 9 10 9 4 8 9 10 14 16 14 15 10 8 9 9
5 7 13 12 20 4 14 4 8 9 7 34 32 25 20 20 20 21 22 17 12 22 20 21 17 10 13 18 10 5 1 5 5 3 5 10 8 8 3 7 10 13 16 17 16 12 12 10 12
5 2 4 11 20 3 8 3 8 9 21 26 25 24 22 18 17 15 14 21 21 18 24 16 8 11 11 11 10 7 3 5 6 3 5 6 7 6 7 1 8 11 19 21 20 18 15 14 12
10 7 6 5 14 6 4 3 8 17 27 24 20 23 23 19 19 16 23 23 22 27 20 13 9 9 11 6 6 5 3 5 7 3 9 4 6 7 7 7 4 8 16 20 19 21 22 21 18
16 8 13 3 6 2 9 5 10 25 26 21 28 24 22 20 23 23 25 26 27 25 18 16 9 8 5 7 5 5 2 5 5 7 2 4 3 7 2 5 5 8 10 12 14 17 20 18 18
8 4 13 12 12 8 9 6 11 22 24 20 24 26 24 29 23 24 22 15 25 21 18 18 13 12 12 11 8 6 2 6 5 2 0 4 3 3 6 5 5 3 9 10 9 12 13 14 17
11 15 18 10 15 5 10 11 11 12 25 27 25 27 28 26 26 24 22 17 21 25 21 18 15 14 11 14 9 2 9 2 10 1 1 4 3 2 5 2 2 2 7 11 12 11 13 10 16
17 12 13 6 8 16 10 6 7 9 25 26 29 29 29 28 28 27 26 25 26 27 23 15 16 13 10 15 9 9 9 8 6 7 6 6 4 4 2 5 4 3 1 7 9 13 14 11 14
12 6 14 6 3 2 4 1 4 6 7 18 26 30 29 27 33 30 28 27 31 28 19 14 12 11 11 14 14 11 4 12 11 8 5 1 4 3 3 4 4 3 1 1 1 8 15 16 16
12 18 8 1 3 3 1 4 6 5 7 8 17 30 33 30 32 34 31 29 28 26 22 15 12 10 10 11 15 13 10 11 7 10 7 2 2 3 3 3 4 5 5 3 3 4 10 15 17
7 11 8 4 3 5 7 5 6 5 11 10 16 33 34 33 29 35 33 31 33 30 23 19 17 13 12 14 13 17 14 15 10 10 6 2 5 6 4 3 3 3 7 5 7 7 7 9 12
2 8 5 6 7 4 12 7 14 9 15 15 17 26 38 37 35 37 37 33 33 31 26 22 20 15 14 13 16 17 13 17 15 10 10 8 5 10 10 7 5 5 5 8 11 13 11 11 12
4 6 7 5 2 5 9 6 10 9 23 28 30 31 32 37 40 39 38 36 31 32 27 28 24 17 13 14 13 14 14 14 18 16 11 8 3 1 5 4 4 5 6 9 13 10 16 14 14
1 6 5 9 1 4 3 11 12 9 15 20 25 29 32 29 32 35 32 38 29 32 29 27 22 14 12 13 12 13 13 14 14 12 8 8 6 7 3 2 2 3 5 8 15 9 14 16 15
9 12 4 4 5 2 10 8 5 12 11 11 17 23 33 30 29 32 30 26 26 28 27 23 17 16 15 15 14 13 12 12 12 13 10 7 8 3 3 3 6 8 10 17 16 11 14 15 15
5 4 5 6 3 5 6 9 8 6 7 4 11 26 34 32 29 34 34 32 31 30 31 25 21 23 19 17 15 14 13 13 13 13 14 14 12 11 9 7 8 14 10 12 12 13 15 13 13
7 7 6 5 5 2 5 5 6 4 3 17 11 15 30 34 30 38 37 35 35 35 33 32 30 26 23 20 20 13 15 12 15 15 16 14 10 10 14 13 11 10 11 11 14 16 11 12 14
Wind_Direction
229 169 28 266 171 242 107 265 132 85 61 72 76 76 77 56 71 141 136 156 142 148 148 147 139 133 130 128 130 131 120 115 114 116 115 114 114 112 115 110 108 100 110 124 126 124 124 122 118
250 14 297 275 142 153 61 75 73 89 110 98 94 82 68 73 107 130 140 158 138 143 144 148 144 137 131 127 126 121 119 117 120 120 114 115 112 111 113 112 107 105 112 129 130 128 131 123 121
97 352 285 222 231 118 126 179 116 139 136 110 93 73 77 121 116 137 153 155 128 125 130 142 146 140 133 127 129 128 123 122 127 123 122 120 116 115 114 115 108 107 112 129 131 130 126 126 128
16 332 86 312 114 94 124 118 142 111 114 112 102 72 98 108 132 142 150 148 142 129 115 136 142 140 137 133 135 131 131 130 123 126 127 131 123 123 116 119 116 115 117 130 134 133 130 128 134
52 43 14 316 229 170 119 133 147 137 107 116 106 109 83 122 131 137 145 154 153 149 136 139 141 138 140 139 137 138 132 129 125 113 110 129 135 132 129 126 124 123 126 132 139 140 136 135 136
61 95 221 310 346 352 94 83 74 56 94 100 95 108 93 134 143 147 162 155 155 152 137 141 140 135 139 140 137 136 132 128 130 123 71 155 145 141 132 130 130 130 136 140 146 145 144 144 144
101 327 298 312 317 45 105 102 82 44 79 106 135 111 142 142 153 149 155 151 142 122 139 144 138 128 131 128 131 124 115 111 110 127 88 88 157 148 142 138 142 137 139 145 149 154 153 150 146
144 157 95 161 291 2 310 335 136 130 103 133 133 146 164 151 162 146 153 147 131 116 130 135 124 98 107 113 110 101 88 80 72 63 104 71 161 157 149 148 151 152 147 151 155 160 159 152 147
230 92 151 207 283 260 327 281 159 121 124 79 141 153 154 159 158 151 148 142 130 132 123 125 127 101 88 93 83 80 83 85 67 68 59 60 155 173 165 153 164 166 160 156 155 153 154 155 154
33 46 267 201 200 161 219 281 269 96 89 83 112 142 154 154 161 160 152 142 147 155 145 150 134 104 113 84 81 74 81 79 58 42 10 43 112 180 175 172 174 178 176 167 167 163 158 153 152
128 171 236 279 237 242 251 299 248 116 89 147 138 143 151 160 167 166 153 164 157 167 147 163 152 129 133 87 82 53 56 40 35 3 312 330 81 137 188 180 182 183 183 173 170 175 171 162 149
96 169 210 270 239 211 160 270 106 140 180 171 161 152 156 157 171 167 170 167 158 167 163 171 168 163 152 106 74 63 57 36 316 351 309 116 126 133 177 200 201 193 192 181 165 157 154 164 174
117 157 257 263 283 163 195 219 92 88 76 156 153 154 160 162 170 168 175 178 183 168 168 163 147 148 151 125 171 134 64 69 90 86 52 73 48 264 222 218 210 207 188 186 175 163 150 169 183
147 183 213 275 303 210 162 108 106 93 140 160 150 162 166 155 169 173 161 170 161 161 163 183 179 183 199 173 143 194 290 312 49 142 115 89 43 11 190 192 204 202 194 173 175 177 195 212 228
39 206 226 185 249 133 109 55 92 97 152 138 140 151 165 157 165 181 177 184 162 148 181 190 189 211 189 186 175 190 230 336 337 16 85 111 48 49 118 184 197 196 193 176 183 194 214 221 206
334 194 7 341 358 336 122 227 122 147 121 131 144 151 146 147 164 182 179 174 167 193 176 173 180 156 155 150 140 156 262 286 339 64 89 90 76 40 49 167 185 189 192 189 190 194 203 219 208
3 331 328 130 240 265 269 157 144 139 129 137 136 147 153 144 172 184 167 184 178 167 167 170 161 159 161 144 165 174 223 242 340 47 26 99 42 26 53 56 160 173 192 207 208 202 209 216 214
292 321 328 249 274 158 265 203 155 145 138 141 148 156 160 158 164 153 166 164 158 153 164 168 186 169 194 165 205 187 152 184 261 262 317 54 43 14 8 56 96 165 166 194 206 217 225 236 208
301 347 285 253 265 332 26 201 163 150 147 145 150 159 162 170 179 187 192 197 191 190 164 171 177 167 170 176 167 165 173 214 224 199 264 52 20 332 331 49 56 150 192 182 198 213 218 225 212
297 270 264 220 255 168 211 223 161 160 160 166 170 167 173 180 186 180 183 176 164 169 174 189 197 197 210 190 169 231 202 113 212 232 180 157 232 271 301 345 21 26 220 214 209 227 228 227 209
295 259 258 217 263 210 357 131 155 189 160 170 179 181 182 179 179 186 186 185 179 176 182 205 195 198 190 173 180 210 225 199 198 199 222 224 243 208 292 336 252 302 170 222 234 220 214 210 217
325 256 232 34 58 338 337 217 324 192 174 170 180 173 179 186 187 191 189 189 185 183 200 207 194 196 193 187 191 212 223 210 207 223 212 155 206 205 203 254 314 310 270 265 212 229 233 236 237
233 93 114 117 92 156 292 101 258 344 201 177 177 179 182 189 186 189 193 196 194 205 207 196 198 207 208 190 201 213 222 187 204 210 207 295 230 250 253 258 279 292 264 286 259 226 229 240 246
190 104 114 114 66 39 336 7 278 203 199 176 188 178 180 186 180 188 194 196 201 205 201 190 200 211 213 218 211 215 221 204 205 220 214 198 271 256 253 263 280 275 267 289 293 297 279 268 271
39 52 5 49 23 322 352 336 273 234 189 178 181 185 175 179 180 188 194 197 198 195 195 202 205 207 215 228 220 221 215 201 203 188 209 205 280 267 248 265 301 329 327 321 317 298 293 285 283
7 131 142 106 79 291 346 280 280 203 187 176 181 184 177 183 186 188 191 194 195 197 200 205 202 206 217 228 219 215 212 204 206 216 214 217 299 339 224 266 324 345 344 350 343 293 293 290 280
210 46 153 115 66 28 267 283 277 349 155 167 176 176 185 189 190 188 190 196 196 197 193 196 196 202 218 217 210 210 212 212 210 216 195 214 269 315 285 130 4 332 337 304 315 292 288 289 282
165 162 88 90 119 168 353 297 263 342 356 189 178 178 184 188 193 185 184 181 183 182 189 189 194 216 216 212 217 217 215 215 212 202 208 222 200 288 244 227 287 293 342 281 303 297 299 300 290
126 187 128 107 124 137 164 277 217 266 293 42 219 184 182 186 192 188 186 190 196 191 191 196 204 212 215 222 219 223 233 228 221 220 219 226 226 230 244 268 279 280 318 298 291 303 306 295 296
168 156 139 130 211 173 131 262 307 294 60 9 97 160 188 188 194 190 190 190 184 189 190 189 192 202 209 219 232 236 244 245 236 231 230 234 231 235 243 270 280 293 300 300 281 307 316 292 295